RH
60 53 45 44 47 36 27 22 18 17 10 4 3 3 3 5 13 19 19 24 35 80 97 100 100 100 100 100 100 100 100 100 100 100 100 100 100 100 100 100 100 100 100 100
68 62 53 47 51 46 35 28 23 15 11 5 3 3 3 7 14 19 21 25 43 47 100 100 98 97 100 100 98 99 100 100 100 100 100 92 94 100 100 100 100 100 100 100
67 63 61 49 66 56 47 35 30 16 14 6 4 4 4 10 13 18 22 26 31 33 100 98 100 100 92 100 100 100 81 62 67 74 78 83 86 100 100 100 100 100 100 100
67 59 62 55 52 71 45 40 33 21 16 9 5 5 5 9 15 19 23 30 34 63 99 100 100 100 99 100 100 97 89 65 65 80 93 100 100 100 97 100 100 100 100 100
70 75 73 71 70 64 54 42 38 28 19 14 6 5 8 11 15 19 26 27 35 35 99 100 100 80 100 99 100 100 100 93 75 100 100 100 100 100 100 100 100 97 94 100
83 93 88 82 64 70 71 51 44 36 28 18 8 6 11 14 18 23 30 34 37 62 90 100 100 100 84 100 100 93 100 100 100 77 93 89 98 100 93 100 100 97 86 91
99 100 100 96 78 83 80 50 45 43 35 24 15 10 15 18 23 27 32 33 43 76 100 100 100 89 100 100 99 100 100 97 99 100 96 97 100 100 100 100 100 100 100 100
100 100 100 100 83 79 94 78 48 48 39 31 25 16 20 24 25 28 34 47 46 44 93 100 96 100 100 100 100 100 100 100 100 100 81 100 96 92 74 97 100 100 100 100
100 100 100 96 82 94 94 90 56 45 42 39 38 28 31 36 30 31 39 50 59 45 59 100 100 100 100 100 76 100 100 100 100 100 100 100 100 100 99 48 67 67 69 95
98 100 100 98 100 97 100 96 65 42 48 41 42 43 34 40 38 36 44 50 64 62 48 79 100 100 100 100 100 100 100 100 100 100 100 100 100 100 100 100 100 96 100 99
60 89 81 98 100 100 100 88 93 60 48 47 41 45 47 39 44 40 41 57 70 81 64 56 80 100 100 100 100 100 100 100 100 99 97 92 92 96 86 91 98 100 100 100
32 54 71 89 100 100 100 94 100 97 60 48 47 42 46 57 54 54 47 48 65 69 93 100 100 100 100 100 100 100 100 100 100 100 100 99 97 100 100 100 100 100 100 100
42 38 58 82 95 100 83 100 100 100 73 58 51 52 49 46 59 67 55 50 55 64 64 100 100 100 100 100 100 100 100 100 100 100 100 100 100 100 100 96 100 100 100 100
52 50 40 50 61 86 84 100 100 100 67 58 55 49 59 61 43 54 69 80 64 53 62 63 87 100 100 100 100 100 100 100 100 100 100 100 100 100 100 96 95 98 100 100
58 70 60 50 54 67 72 93 100 72 74 77 75 57 51 46 60 42 48 58 76 81 69 62 64 63 85 100 100 100 100 100 100 100 100 100 100 100 100 100 100 100 100 100
63 60 73 63 53 46 56 68 64 64 64 60 70 74 71 61 55 52 50 39 50 59 66 70 68 66 64 66 66 71 88 100 100 100 100 100 100 100 90 90 89 100 100 100
83 74 70 85 73 79 84 74 61 80 100 96 71 67 90 96 73 53 41 42 42 42 48 50 60 74 66 57 59 58 60 60 62 69 78 81 81 100 97 97 100 96 100 100
76 74 73 79 75 70 92 100 100 100 100 99 96 72 78 86 93 98 100 74 45 38 37 40 42 44 49 54 56 59 56 56 55 57 58 62 72 89 95 98 95 94 100 100
76 79 75 81 77 84 87 91 100 100 100 98 86 86 63 70 88 86 98 94 87 66 43 43 39 38 41 41 44 45 49 54 57 59 58 56 53 54 58 60 62 65 70 63
94 92 93 82 72 78 72 86 99 100 100 86 74 95 74 68 67 87 85 85 83 85 95 82 56 49 44 42 48 49 36 36 41 43 46 48 49 56 65 66 64 62 57 56
88 93 100 95 86 86 98 90 100 90 98 81 98 99 88 92 95 80 82 89 80 80 78 77 67 60 55 48 42 43 42 45 45 38 37 43 44 43 44 46 48 49 48 50
90 96 100 100 100 100 99 98 98 95 100 100 100 91 88 83 77 95 78 76 92 92 90 85 70 70 72 56 46 42 39 35 34 38 39 36 36 36 35 37 36 39 42 41
100 100 100 100 95 100 100 100 100 100 100 100 92 99 93 78 65 50 64 68 65 69 71 60 52 47 40 34 27 25 25 25 23 26 30 29 31 30 33 33 31 30 32 34
100 100 100 94 98 100 100 100 100 100 100 100 99 99 62 62 50 39 36 33 33 32 33 35 35 32 30 25 20 18 18 17 17 16 14 16 21 23 24 27 30 28 23 26
100 100 100 100 100 100 100 100 100 100 100 100 93 71 42 36 26 23 22 21 19 18 18 17 17 17 17 16 16 14 10 10 11 11 10 10 11 13 18 22 27 32 33 31
100 100 100 100 100 100 100 100 92 90 89 79 53 28 26 23 20 19 18 17 16 15 13 13 12 12 12 12 12 12 12 11 9 9 10 10 10 10 11 13 16 21 25 26
Wind_Speed
52 58 57 59 63 67 65 62 61 57 51 25 9 20 37 63 86 88 90 90 88 79 80 86 80 72 65 66 68 65 67 68 70 71 69 61 69 66 63 60 57 56 55 53
53 55 58 60 61 66 69 68 66 57 49 27 9 18 38 66 85 87 86 86 88 75 63 66 72 68 49 52 65 70 69 66 69 69 68 66 60 61 61 61 60 59 58 55
53 54 55 59 59 67 70 67 67 59 54 33 8 15 40 71 81 84 80 83 86 77 64 57 56 58 56 64 62 60 64 63 63 65 65 67 62 60 62 62 61 60 58 57
52 52 54 55 58 62 65 64 64 62 56 40 13 12 38 64 75 78 78 83 85 81 68 61 56 65 63 58 61 61 57 56 55 58 61 60 57 60 64 64 62 59 58 56
54 53 55 54 60 54 61 62 61 61 60 49 18 7 38 60 70 71 74 80 83 81 84 66 50 62 68 64 63 56 65 54 49 59 67 63 64 64 66 70 69 66 67 66
54 51 55 53 54 50 54 59 57 58 59 51 24 6 36 57 67 68 72 77 78 72 82 81 67 60 62 64 64 59 51 53 57 53 57 63 69 65 63 64 67 67 66 65
49 48 47 49 53 47 52 54 55 50 52 49 33 3 34 55 63 65 72 75 77 81 82 79 67 65 69 74 65 58 66 58 54 57 62 59 59 59 62 67 68 63 62 65
46 44 40 46 43 41 46 48 49 39 40 42 40 7 29 52 58 62 69 75 75 76 83 89 69 68 72 72 66 63 61 67 56 64 57 51 56 62 63 62 64 66 69 71
36 40 34 39 36 38 43 46 47 37 30 31 31 21 18 50 52 55 66 73 75 75 79 90 90 79 70 63 72 66 68 71 72 67 66 62 60 62 66 73 70 70 78 78
33 36 36 31 33 35 36 41 43 36 29 20 19 19 3 38 53 55 64 72 75 77 77 87 97 98 88 79 74 73 77 83 81 82 78 74 78 75 72 70 70 68 68 72
35 34 34 24 29 34 36 36 34 35 26 19 10 7 8 13 45 53 61 70 73 75 77 76 86 91 97 89 91 82 75 77 80 82 77 75 75 76 80 74 76 73 76 72
41 34 32 28 32 33 31 30 29 29 30 19 14 7 3 4 18 51 56 67 74 76 75 77 76 83 86 96 84 84 81 80 84 83 82 79 75 78 72 68 75 76 82 75
48 39 34 34 34 32 28 26 31 33 34 24 18 15 15 14 16 20 47 60 70 79 84 87 94 101 96 95 101 98 95 93 86 78 81 83 84 86 85 78 75 78 86 84
57 49 43 32 28 26 22 24 33 39 36 33 24 23 24 23 27 27 27 34 57 74 84 91 96 104 106 107 106 107 107 111 103 96 92 92 92 94 95 92 89 86 92 95
59 57 47 36 35 29 30 32 35 32 27 28 31 31 33 33 35 37 39 39 40 45 62 84 96 102 108 114 115 113 112 114 115 115 113 108 108 104 107 106 102 104 106 102
65 60 58 50 44 42 35 22 34 29 30 44 52 51 45 38 38 41 43 50 51 51 51 55 69 86 104 114 113 116 119 123 126 126 122 123 118 116 126 130 128 119 110 111
71 66 61 56 51 51 46 45 43 47 55 64 60 54 51 50 53 51 49 49 52 62 65 65 61 63 77 95 99 108 118 124 126 124 125 132 133 131 130 129 131 132 132 131
73 71 65 58 57 50 52 50 50 52 54 69 65 61 58 58 56 58 59 61 60 59 60 67 73 73 76 79 80 85 95 102 108 112 116 125 131 134 135 139 140 140 139 139
80 77 75 68 62 61 54 53 55 58 61 73 67 68 66 59 65 68 67 69 70 74 71 71 71 74 79 82 82 83 83 87 88 92 93 98 102 104 107 113 117 119 122 124
87 86 82 77 72 70 71 66 68 72 68 80 78 78 67 66 64 69 77 79 80 80 81 82 80 79 82 86 89 90 92 95 95 100 98 95 94 90 89 90 90 91 95 97
89 89 85 83 82 79 81 77 77 82 83 82 87 91 82 66 69 70 76 81 84 86 87 91 93 95 96 94 93 95 97 99 102 104 103 102 103 106 106 101 101 97 96 94
95 94 89 85 86 85 85 86 88 93 91 92 98 100 93 82 68 77 79 81 85 89 93 98 99 101 102 101 99 101 102 103 104 108 110 110 111 114 112 109 106 106 106 102
98 96 94 90 90 92 93 94 95 100 101 103 105 111 97 91 83 74 80 90 94 96 99 101 103 105 105 104 101 100 101 102 102 102 106 111 114 116 116 114 113 110 112 112
101 100 97 94 93 96 99 104 104 103 107 111 110 108 98 94 86 83 83 83 86 90 94 98 100 101 103 103 100 97 96 96 95 93 94 95 99 102 105 111 112 110 109 106
105 105 102 100 99 100 103 105 107 108 112 115 110 102 96 92 88 86 86 86 87 88 90 91 92 94 94 94 95 96 91 88 88 90 91 92 92 97 101 104 106 109 108 108
109 109 106 105 106 109 110 112 110 110 113 111 102 96 93 92 91 90 90 90 90 90 90 90 90 91 91 91 92 93 93 91 88 87 89 90 88 91 97 101 105 106 108 108
Wind_Direction
343 349 354 354 354 356 357 358 1 3 353 341 281 208 197 191 190 194 195 196 201 194 195 201 203 209 219 225 226 224 227 231 236 240 241 247 248 249 252 254 255 255 258 260
343 345 351 353 353 356 358 357 359 3 1 349 292 208 195 190 190 193 194 195 198 197 193 198 206 210 207 216 235 229 232 234 238 239 240 246 246 251 254 256 253 255 257 261
339 344 349 352 355 357 357 358 357 2 7 358 312 212 192 190 192 193 193 195 197 193 192 194 197 199 204 217 222 233 233 240 243 244 245 246 248 247 250 250 251 254 258 261
337 341 347 350 354 356 356 358 357 0 7 5 343 223 198 193 192 193 192 194 196 193 183 190 196 195 194 203 222 235 238 240 242 245 245 244 243 246 249 252 254 255 256 262
334 340 342 347 349 349 354 358 359 1 3 7 4 219 198 196 194 193 195 197 196 195 189 194 200 200 202 212 225 227 233 238 244 244 241 244 249 251 254 254 254 254 258 259
329 336 338 341 347 348 352 357 360 0 0 6 12 192 199 198 196 195 196 198 198 194 196 203 209 204 211 219 219 228 215 231 241 247 241 249 248 249 252 252 255 258 260 261
326 331 336 339 343 347 349 355 359 1 359 1 11 192 198 199 196 198 199 201 198 196 194 199 203 207 205 214 217 220 226 235 234 235 249 247 249 252 252 254 255 256 255 257
319 326 333 334 340 346 346 347 355 358 359 4 11 26 201 202 200 200 202 203 203 205 200 203 202 200 210 213 221 223 228 236 236 240 239 248 240 242 248 251 253 253 256 258
313 320 327 330 337 340 343 344 349 355 2 7 8 17 199 204 207 206 206 207 208 208 207 207 209 210 213 218 221 227 235 233 237 237 240 235 244 241 246 257 258 257 254 253
308 312 322 331 335 335 336 338 343 349 351 1 10 9 342 206 209 212 211 211 213 214 214 213 214 219 223 221 231 232 237 235 233 239 237 238 239 243 248 250 252 253 254 259
321 313 316 329 322 326 328 334 332 342 347 333 357 11 6 219 214 218 217 216 216 219 222 223 222 226 228 232 234 233 232 242 239 241 240 241 244 247 247 253 249 251 252 259
342 325 319 317 318 316 323 324 319 323 335 327 320 286 200 194 223 220 225 221 221 222 222 223 226 225 233 233 230 227 232 237 242 247 249 250 249 246 245 242 246 251 250 251
357 342 326 318 310 307 313 308 304 307 314 312 303 290 263 214 210 220 230 228 227 226 225 224 222 225 229 232 234 233 236 238 244 247 249 251 245 244 244 246 241 244 247 252
356 352 348 336 320 297 301 298 298 303 309 311 296 278 264 252 228 220 221 226 235 234 232 230 228 227 228 231 233 235 238 238 244 244 245 242 247 245 248 252 249 245 248 253
349 353 348 354 352 322 304 290 291 300 302 314 316 303 284 260 251 234 225 224 224 228 236 237 236 236 234 235 238 239 239 242 244 248 251 252 251 250 246 248 250 253 257 255
346 346 346 339 349 348 344 321 326 309 304 313 315 312 300 284 271 265 253 235 225 226 228 232 238 241 241 239 241 242 242 244 245 247 249 250 250 253 253 253 252 255 254 254
339 341 341 339 333 333 334 339 331 327 324 324 315 309 295 289 283 279 271 262 251 238 233 230 231 237 241 243 242 245 246 247 247 248 249 250 251 252 251 253 255 258 256 258
337 336 335 334 333 332 324 316 313 313 314 321 316 309 303 286 276 270 269 271 269 264 256 248 242 241 240 240 240 241 244 247 249 249 251 253 254 255 257 257 257 258 257 259
333 331 333 330 332 333 323 313 307 306 307 314 313 308 302 290 278 270 265 264 265 267 267 265 258 251 249 248 248 244 245 244 244 243 245 247 250 253 255 257 257 259 261 262
328 328 326 327 329 326 325 324 322 317 304 308 319 318 306 300 286 273 266 262 261 263 263 263 263 261 258 255 252 250 250 247 245 245 244 245 246 246 247 248 248 251 254 256
326 325 323 324 324 324 321 319 315 317 317 315 316 316 310 300 286 278 271 269 267 264 262 262 262 260 260 260 259 258 256 253 253 253 251 248 249 248 246 247 247 247 248 253
325 323 322 319 318 317 316 318 317 316 317 316 315 313 310 304 291 275 270 264 260 260 263 264 262 261 262 262 259 258 258 256 255 255 255 254 251 250 250 249 252 252 250 252
321 320 319 317 318 316 316 313 312 312 313 313 315 312 304 302 296 284 274 269 267 264 262 264 265 266 268 268 267 266 264 261 259 256 254 254 254 253 253 253 250 249 250 252
317 319 318 315 316 316 315 313 312 310 308 308 311 309 302 301 296 291 286 281 277 274 272 271 269 268 268 270 270 267 264 263 263 261 257 254 254 256 256 255 254 254 253 253
315 317 315 315 314 314 312 311 309 308 308 306 308 306 301 297 292 288 286 283 281 278 276 275 274 273 271 270 269 268 266 263 261 259 258 256 252 249 248 249 251 253 254 254
315 314 314 313 312 311 312 312 309 308 307 307 305 302 299 295 292 290 287 285 283 281 279 277 274 272 271 270 269 268 268 266 261 259 258 256 254 251 249 248 247 247 249 251